GPRO Georgia

Formula 1 online manager


    Season 28, Race 2: Yas Marina GP (United Arab Emirates)

    Share
    avatar
    mrfantom
    Admin

    Posts : 211
    Join date : 01.09.11
    Age : 27
    Location : Tbilisi

    Season 28, Race 2: Yas Marina GP (United Arab Emirates)

    Post by mrfantom on Sat Nov 12, 2011 11:16 pm




    ადგილმდებარეობა: გაერთიანებული არაბეთის ემირატები
    თარიღი: 11 ნოემბერი, 2011

    ტრასის პარამეტრები:
    სარბოლო დისტანცია: 305.5 კმ
    წრეების რაოდენობა: 55
    წრის სიგრძე: 5.555 კმ
    საშუალო სიჩქარე: 212.79 კმ/სთ
    ჩატარებული რბოლები: 6
    მოსახვევების რაოდენობა: 21
    პიტზე შესვლა/გამოსვლის დრო: 18.5 წმ.

    სიმძლავრე: 12
    მართვადობა: 10
    აჩქარება: 17

    დამწოლი ძალა: საშუალო
    გასწრება: რთული
    დაკიდების სიხისტე: საშუალო
    საწვავის ხარჯი: დაბალი
    საბურავების ცვეთა: საშუალო
    მოჭიდების ხარისხი: მაღალი

    პრაქტიკა/კვალიფიკაცია 1

    ტემპ: 17°C
    ტენიანობა: 51%
    კვალიფიკაცია 2/რბოლის სტარტი

    ტემპ: 23°C
    ტენიანობა: 55%
    სტარტი - 0ს30წთ
    ტემპ: 36°-41°
    ტენიანობა: 97%-99%
    წვიმის ალბათობა: 0%-5%
    0ს30წთ - 1ს
    ტემპ: 24°-29°
    ტენიანობა: 56%-65%
    წვიმის ალბათობა: 15%-25%
    1ს - 1ს30წთ
    ტემპ: 25°-30°
    ტენიანობა: 59%-70%
    წვიმის ალბათობა: 35%-45%
    1ს30წთ - 2ს
    ტემპ: 27°-32°
    ტენიანობა: 63%-75%
    წვიმის ალბათობა: 60%-70%
    avatar
    mrfantom
    Admin

    Posts : 211
    Join date : 01.09.11
    Age : 27
    Location : Tbilisi

    Re: Season 28, Race 2: Yas Marina GP (United Arab Emirates)

    Post by mrfantom on Sat Nov 12, 2011 11:17 pm

    Lap informationLap Lap time Pos Tyres Weather Temp Hum Events
    0 - 13 Extra Soft Very Cloudy 23° 55% -
    1 1:52.444 9 Extra Soft Very Cloudy 23° 55% -
    2 1:45.027 9 Extra Soft Very Cloudy 23° 55% -
    3 1:45.681 9 Extra Soft Very Cloudy 23° 55% -
    4 1:44.586 9 Extra Soft Very Cloudy 23° 55% -
    5 1:45.807 9 Extra Soft Very Cloudy 23° 54% -
    6 1:44.509 9 Extra Soft Very Cloudy 23° 54% -
    7 1:44.716 10 Extra Soft Cloudy 23° 53% -
    8 1:44.243 10 Extra Soft Cloudy 23° 53% -
    9 1:44.843 10 Extra Soft Cloudy 23° 53% -
    10 1:45.231 9 Extra Soft Cloudy 23° 53% -
    11 1:44.604 9 Extra Soft Cloudy 23° 53% -
    12 1:44.678 9 Extra Soft Cloudy 23° 53% -
    13 1:45.332 8 Extra Soft Cloudy 23° 53% -
    14 1:55.997 12 Extra Soft Very Cloudy 23° 53% Pit
    15 2:18.298 18 Extra Soft Very Cloudy 23° 53% -
    16 1:45.008 18 Extra Soft Very Cloudy 23° 53% -
    17 1:44.809 17 Extra Soft Very Cloudy 23° 53% -
    18 1:44.907 16 Extra Soft Very Cloudy 23° 53% -
    19 1:44.782 14 Extra Soft Very Cloudy 23° 53% -
    20 1:44.718 10 Extra Soft Very Cloudy 23° 53% -
    21 1:45.449 7 Extra Soft Very Cloudy 24° 54% -
    22 1:44.689 6 Extra Soft Very Cloudy 24° 55% -
    23 1:44.412 6 Extra Soft Very Cloudy 24° 56% -
    24 1:44.455 6 Extra Soft Very Cloudy 24° 56% -
    25 1:44.523 5 Extra Soft Very Cloudy 25° 56% -
    26 1:43.984 5 Extra Soft Very Cloudy 26° 56% -
    27 1:44.622 5 Extra Soft Very Cloudy 27° 56% -
    28 1:55.944 10 Extra Soft Very Cloudy 27° 56% Pit
    29 2:21.373 16 Extra Soft Very Cloudy 27° 56% -
    30 1:44.971 15 Extra Soft Very Cloudy 27° 56% -
    31 1:45.099 15 Extra Soft Very Cloudy 27° 56% -
    32 1:45.500 14 Extra Soft Very Cloudy 27° 56% -
    33 1:44.664 12 Extra Soft Very Cloudy 27° 56% -
    34 1:44.555 12 Extra Soft Very Cloudy 27° 56% -
    35 1:44.598 9 Extra Soft Very Cloudy 26° 56% -
    36 1:44.209 9 Extra Soft Very Cloudy 26° 57% -
    37 1:44.087 6 Extra Soft Very Cloudy 25° 58% -
    38 1:44.349 4 Extra Soft Very Cloudy 25° 58% -
    39 1:43.994 4 Extra Soft Very Cloudy 25° 59% -
    40 1:44.790 3 Extra Soft Very Cloudy 25° 59% -
    41 1:54.876 4 Extra Soft Very Cloudy 25° 59% Pit
    42 2:20.371 15 Extra Soft Very Cloudy 26° 59% -
    43 1:49.576 14 Extra Soft Very Cloudy 27° 59% Driver mistake
    44 1:44.753 13 Extra Soft Very Cloudy 27° 59% -
    45 1:44.768 13 Extra Soft Very Cloudy 28° 59% -
    46 1:44.747 13 Extra Soft Very Cloudy 28° 59% -
    47 1:44.276 13 Extra Soft Very Cloudy 29° 59% -
    48 1:44.083 13 Extra Soft Very Cloudy 30° 59% -
    49 1:44.022 12 Extra Soft Very Cloudy 30° 59% -
    50 1:43.839 12 Extra Soft Very Cloudy 30° 59% -
    51 1:44.012 9 Extra Soft Very Cloudy 30° 59% -
    52 1:43.855 9 Extra Soft Very Cloudy 30° 59% -
    53 1:44.892 9 Extra Soft Very Cloudy 30° 59% -
    54 1:55.453 9 Extra Soft Very Cloudy 30° 59% Pit
    55 2:19.878 15 Extra Soft Very Cloudy 30° 59% -

    Risks used
    Overtake Defend Clear Malfunct
    5 5 10 5

    Setup used
    FWing RWing Eng Bra Gear Susp
    850 750 450 650 550 500



    Start fuel: 62 litersPit Pitstop reason Tyres condition
    Fuel left Refilled to Pit time
    Stop 1
    (Lap 14) The tyres could not do any more laps 4% 2% 62 liters 23.160s
    Stop 2
    (Lap 28) The tyres could not do any more laps 2% 2% 62 liters 26.992s
    Stop 3
    (Lap 41) The tyres could not do any more laps 7% 4% 62 liters 25.914s
    Stop 4
    (Lap 54) The tyres could not do any more laps 4% 4% 62 liters 25.299s



    Tyres condition after finish: 93%

    Fuel left in the car after finish: 57 liters
    avatar
    Matador

    Posts : 216
    Join date : 02.09.11
    Age : 35

    Re: Season 28, Race 2: Yas Marina GP (United Arab Emirates)

    Post by Matador on Mon Nov 14, 2011 2:57 pm

    Lap informationLap Lap time Pos Tyres Weather Temp Hum Events
    0 - 22 Soft Very Cloudy 23° 55% -
    1 1:55.806 22 Soft Very Cloudy 23° 55% -
    2 1:44.632 21 Soft Very Cloudy 23° 55% -
    3 1:44.145 22 Soft Very Cloudy 23° 55% -
    4 1:44.059 22 Soft Very Cloudy 23° 55% -
    5 1:44.011 22 Soft Very Cloudy 23° 54% -
    6 1:43.910 22 Soft Very Cloudy 23° 54% -
    7 1:43.914 22 Soft Cloudy 23° 53% -
    8 1:43.764 22 Soft Cloudy 23° 53% -
    9 1:43.706 22 Soft Cloudy 23° 53% -
    10 1:43.629 22 Soft Cloudy 23° 53% -
    11 1:43.551 22 Soft Cloudy 23° 53% -
    12 1:43.539 22 Soft Cloudy 23° 53% -
    13 1:43.475 22 Soft Cloudy 23° 53% -
    14 1:43.353 20 Soft Very Cloudy 23° 53% -
    15 1:43.286 19 Soft Very Cloudy 23° 53% -
    16 1:43.193 18 Soft Very Cloudy 23° 53% -
    17 1:43.279 17 Soft Very Cloudy 23° 53% -
    18 1:44.017 16 Soft Very Cloudy 23° 53% -
    19 1:44.826 16 Soft Very Cloudy 23° 53% -
    20 1:55.158 18 Soft Very Cloudy 23° 53% Pit
    21 2:16.342 23 Soft Very Cloudy 24° 54% -
    22 1:44.056 22 Soft Very Cloudy 24° 55% -
    23 1:44.061 22 Soft Very Cloudy 24° 56% -
    24 1:47.730 25 Soft Very Cloudy 24° 56% Driver mistake
    25 1:43.655 24 Soft Very Cloudy 25° 56% -
    26 1:43.267 24 Soft Very Cloudy 26° 56% -
    27 1:43.068 24 Soft Very Cloudy 27° 56% -
    28 1:43.132 24 Soft Very Cloudy 27° 56% -
    29 1:43.335 24 Soft Very Cloudy 27° 56% -
    30 1:42.951 24 Soft Very Cloudy 27° 56% -
    31 1:43.075 24 Soft Very Cloudy 27° 56% -
    32 1:43.181 24 Soft Very Cloudy 27° 56% -
    33 1:43.100 24 Soft Very Cloudy 27° 56% -
    34 1:43.070 24 Soft Very Cloudy 27° 56% -
    35 1:43.104 23 Soft Very Cloudy 26° 56% -
    36 1:43.024 23 Soft Very Cloudy 26° 57% -
    37 1:43.690 22 Soft Very Cloudy 25° 58% -
    38 1:44.450 20 Soft Very Cloudy 25° 58% -
    39 1:54.782 21 Soft Very Cloudy 25° 59% Pit
    40 2:15.805 27 Soft Very Cloudy 25° 59% -
    41 1:43.715 26 Soft Very Cloudy 25° 59% -
    42 1:43.370 25 Soft Very Cloudy 26° 59% -
    43 1:43.313 25 Soft Very Cloudy 27° 59% -
    44 1:43.541 23 Soft Very Cloudy 27° 59% -
    45 1:43.226 23 Soft Very Cloudy 28° 59% -
    46 1:43.458 23 Soft Very Cloudy 28° 59% -
    47 1:43.290 23 Soft Very Cloudy 29° 59% -
    48 1:43.196 23 Soft Very Cloudy 30° 59% -
    49 1:43.159 23 Soft Very Cloudy 30° 59% -
    50 1:43.061 24 Soft Very Cloudy 30° 59% -
    51 1:42.919 24 Soft Very Cloudy 30° 59% -
    52 1:42.875 23 Soft Very Cloudy 30° 59% -
    53 1:42.844 23 Soft Very Cloudy 30° 59% -
    54 1:42.690 23 Soft Very Cloudy 30° 59% -
    55 1:42.962 21 Soft Very Cloudy 30° 59% -

    Risks used
    Overtake Defend Clear Malfunct
    0 0 0 0

    Setup used
    FWing RWing Eng Bra Gear Susp
    870 770 600 580 440 630



    Start fuel: 75 litersPit Pitstop reason Tyres condition
    Fuel left Refilled to Pit time
    Stop 1
    (Lap 20) No more fuel was left 4% 2% 72 liters 22.566s
    Stop 2
    (Lap 39) The tyres could not do any more laps 5% 2% 72 liters 22.038s



    Tyres condition after finish: 17%

    Fuel left in the car after finish: 14 liters
    avatar
    Matador

    Posts : 216
    Join date : 02.09.11
    Age : 35

    Re: Season 28, Race 2: Yas Marina GP (United Arab Emirates)

    Post by Matador on Mon Nov 14, 2011 2:58 pm

    Lap information
    Lap Lap time Pos Tyres Weather Temp Hum Events
    0 - 11 Soft Very Cloudy 23° 55% -
    1 1:54.258 16 Soft Very Cloudy 23° 55% -
    2 1:46.079 17 Soft Very Cloudy 23° 55% -
    3 1:45.818 18 Soft Very Cloudy 23° 55% -
    4 1:45.876 18 Soft Very Cloudy 23° 55% -
    5 1:45.826 17 Soft Very Cloudy 23° 54% -
    6 1:45.676 17 Soft Very Cloudy 23° 54% -
    7 1:45.647 18 Soft Cloudy 23° 53% -
    8 1:45.364 16 Soft Cloudy 23° 53% -
    9 1:45.584 15 Soft Cloudy 23° 53% -
    10 1:45.519 14 Soft Cloudy 23° 53% -
    11 1:44.921 14 Soft Cloudy 23° 53% -
    12 1:44.835 11 Soft Cloudy 23° 53% -
    13 1:45.100 11 Soft Cloudy 23° 53% -
    14 1:44.812 5 Soft Very Cloudy 23° 53% -
    15 1:44.975 4 Soft Very Cloudy 23° 53% -
    16 1:45.106 2 Soft Very Cloudy 23° 53% -
    17 1:45.581 2 Soft Very Cloudy 23° 53% -
    18 1:46.336 3 Soft Very Cloudy 23° 53% -
    19 1:56.440 3 Soft Very Cloudy 23° 53% Pit
    20 2:20.655 16 Soft Very Cloudy 23° 53% -
    21 1:54.100 18 Soft Very Cloudy 24° 54% Driver mistake
    22 1:45.483 18 Soft Very Cloudy 24° 55% -
    23 1:45.520 17 Soft Very Cloudy 24° 56% -
    24 1:45.813 17 Soft Very Cloudy 24° 56% -
    25 1:45.736 14 Soft Very Cloudy 25° 56% -
    26 1:45.366 13 Soft Very Cloudy 26° 56% -
    27 1:45.454 13 Soft Very Cloudy 27° 56% -
    28 1:45.290 13 Soft Very Cloudy 27° 56% -
    29 1:45.244 9 Soft Very Cloudy 27° 56% -
    30 1:45.201 8 Soft Very Cloudy 27° 56% -
    31 1:44.857 7 Soft Very Cloudy 27° 56% -
    32 1:44.752 6 Soft Very Cloudy 27° 56% -
    33 1:44.796 6 Soft Very Cloudy 27° 56% -
    34 1:44.774 6 Soft Very Cloudy 27° 56% -
    35 1:45.354 5 Soft Very Cloudy 26° 56% -
    36 1:45.794 6 Soft Very Cloudy 26° 57% -
    37 1:47.988 6 Soft Very Cloudy 25° 58% -
    38 1:57.981 7 Soft Very Cloudy 25° 58% Pit
    39 2:23.034 13 Soft Very Cloudy 25° 59% -
    40 1:46.587 10 Soft Very Cloudy 25° 59% -
    41 1:47.204 10 Soft Very Cloudy 25° 59% -
    42 1:46.240 9 Soft Very Cloudy 26° 59% -
    43 1:46.108 9 Soft Very Cloudy 27° 59% -
    44 1:46.162 10 Soft Very Cloudy 27° 59% -
    45 1:46.783 9 Soft Very Cloudy 28° 59% -
    46 1:45.899 9 Soft Very Cloudy 28° 59% -
    47 1:46.001 8 Soft Very Cloudy 29° 59% -
    48 1:45.799 8 Soft Very Cloudy 30° 59% -
    49 1:46.399 8 Soft Very Cloudy 30° 59% -
    50 1:45.234 7 Soft Very Cloudy 30° 59% -
    51 1:45.990 7 Soft Very Cloudy 30° 59% -
    52 1:45.679 7 Soft Very Cloudy 30° 59% -
    53 1:45.826 6 Soft Very Cloudy 30° 59% -
    54 1:46.166 6 Soft Very Cloudy 30° 59% -
    55 1:47.206 6 Soft Very Cloudy 30° 59% -

    Risks used
    Overtake Defend Clear Malfunct
    0 0 0 0

    Setup used
    FWing RWing Eng Bra Gear Susp
    850 750 500 680 550 600

    Start fuel: 82 liters
    Pit Pitstop reason Tyres condition
    Fuel left Refilled to Pit time
    Stop 1
    (Lap 19) The tyres could not do any more laps 5% 3% 78 liters 24.849s
    Stop 2
    (Lap 38) No more fuel was left 2% 1% 78 liters 27.335s

    Tyres condition after finish: 9%

    Fuel left in the car after finish: 10 liters

    Sponsored content

    Re: Season 28, Race 2: Yas Marina GP (United Arab Emirates)

    Post by Sponsored content


      Current date/time is Fri Apr 28, 2017 11:24 am